This is the latest recevied weather packets stored in our database for station/object OM4MO-10. If no packets are shown the sender has not sent any weather packets the latest 10 day(s).
| Time | Temp. | Humidity | Pressure | Rain* | Wind** | Luminosity | Snow |
|---|---|---|---|---|---|---|---|
| 1788293523 | 21.67° C | 79% | 754.7 hPa | - | - | - | - |
| 1788292622 | 13.33° C | 79% | 1022 hPa | - | - | - | - |
| 1788291722 | 13.89° C | 79% | 1021.8 hPa | - | - | - | - |
| 1788290822 | 21.67° C | 79% | 754.7 hPa | - | - | - | - |
| 1788289921 | 13.89° C | 79% | 1021.8 hPa | - | - | - | - |
| 1788289021 | 21.67° C | 79% | 754.7 hPa | - | - | - | - |
| 1788288120 | 21.67° C | 79% | 754.7 hPa | - | - | - | - |
| 1788287219 | 15.56° C | 79% | 1021.4 hPa | - | - | - | - |
| 1788286317 | 21.67° C | 79% | 754.7 hPa | - | - | - | - |
| 1788285416 | 21.67° C | 79% | 754.7 hPa | - | - | - | - |
| 1788284515 | 21.67° C | 79% | 754.7 hPa | - | - | - | - |
| 1788283614 | 18.89° C | 79% | 1014.2 hPa | - | - | - | - |
| 1788282714 | 21.67° C | 79% | 754.7 hPa | - | - | - | - |
| 1788281813 | 21.67° C | 79% | 754.7 hPa | - | - | - | - |
| 1788280912 | 20° C | 79% | 1018.1 hPa | - | - | - | - |
| 1788280012 | 21.67° C | 79% | 754.7 hPa | - | - | - | - |
| 1788279111 | 22.22° C | 79% | 1021.5 hPa | - | - | - | - |
| 1788278211 | 21.67° C | 79% | 754.7 hPa | - | - | - | - |
| 1788277309 | 22.78° C | 79% | 1023.5 hPa | - | - | - | - |
| 1788276408 | 22.78° C | 79% | 1022.9 hPa | - | - | - | - |
| 1788275507 | 23.33° C | 80% | 1025.1 hPa | - | - | - | - |
| 1788274606 | 21.67° C | 79% | 754.7 hPa | - | - | - | - |
| 1788273706 | 21.67° C | 79% | 754.7 hPa | - | - | - | - |
| 1788272805 | 21.67° C | 79% | 754.7 hPa | - | - | - | - |
| 1788271904 | 21.67° C | 79% | 754.7 hPa | - | - | - | - |
* Rain since midnight (hover to see other rain measurements)
** Current wind speed in m/s (hover to see current wind gust speed)